Hourly Data Report for May 24, 2012

All times are specified in Local Standard Time (LST). Add 1 hour to adjust for Daylight Saving Time where and when it is observed.

OTTAWA INTL A
ONTARIO

45°19'00.000" N
75°40'00.000" W
114.90 m
6106001
71628
YOW

Download Data

Hourly Data (May 2012)
Hourly Data Report for May 24, 2012
Temp Definition
°C
Dew Point Temp Definition
°C
Rel Hum Definition
%
Wind Dir Definition
10's deg

Wind Spd Definition
km/h
Visibility Definition
km
Stn Press Definition
kPa
Hmdx Definition


Wind Chill Definition


Weather Definition


TIME
00:00 Legend Double Dagger 15.2 13.3 88 8 10 10.0 100.30     LegendNANA
01:00 Legend Double Dagger 13.6 12.3 92 6 11 10.0 100.31     Clear
02:00 Legend Double Dagger 13.1 12.0 93 5 13 10.0 100.30     LegendNANA
03:00 Legend Double Dagger 13.2 12.3 94 7 10 10.0 100.28     LegendNANA
04:00 Legend Double Dagger 12.6 11.8 95 5 9 10.0 100.31     Mainly Clear
05:00 Legend Double Dagger 13.1 12.3 95 5 10 10.0 100.37     LegendNANA
06:00 Legend Double Dagger 14.5 13.1 91 7 10 10.0 100.43     LegendNANA
07:00 Legend Double Dagger 16.1 14.0 87 7 6 10.0 100.51     Mainly Clear
08:00 Legend Double Dagger 20.2 16.1 77 17 9 10.0 100.51 25   LegendNANA
09:00 Legend Double Dagger 22.1 17.5 75 19 4 10.0 100.47 28   LegendNANA
10:00 Legend Double Dagger 24.9 18.5 67 18 15 10.0 100.45 31   Mainly Clear
11:00 Legend Double Dagger 27.0 19.0 61 20 14 10.0 100.41 34   LegendNANA
12:00 Legend Double Dagger 25.6 19.4 68 17 15 10.0 100.39 33   LegendNANA
13:00 Legend Double Dagger 27.5 18.4 57 17 25 10.0 100.36 34   Mostly Cloudy
14:00 Legend Double Dagger 28.2 19.9 60 18 13 10.0 100.33 36   LegendNANA
15:00 Legend Double Dagger 28.3 18.3 54 19 18 10.0 100.29 35   LegendNANA
16:00 Legend Double Dagger 27.7 18.6 57 18 19 10.0 100.26 34   Mainly Clear
17:00 Legend Double Dagger 26.6 17.6 57 17 16 10.0 100.25 32   LegendNANA
18:00 Legend Double Dagger 26.3 17.3 57 17 21 10.0 100.24 32   LegendNANA
19:00 Legend Double Dagger 24.5 16.9 62 17 10 10.0 100.22 30   Mainly Clear
20:00 Legend Double Dagger 21.5 16.8 74 15 10 10.0 100.24 27   LegendNANA
21:00 Legend Double Dagger 21.8 16.8 73 16 12 10.0 100.27 27   LegendNANA
22:00 Legend Double Dagger 21.4 16.7 74 16 17 10.0 100.28 26   Clear
23:00 Legend Double Dagger 21.7 16.9 74 16 19 10.0 100.28 27   LegendNANA

Notes on Data Quality.

Legend

  • E = Estimated
  • M = Missing
  • NA = Not Available
  • ‡ = Partner data that is not subject to review by the National Climate Archives
Date modified: